Regional Weather Roundup
Issued by NWS

Home | Current Version | Previous Version | Text Only | Print | Product List | Glossary Off
Versions: 1 2 3 4 5 6 7 8 9 10 11 12 13 14 15 16 17 18 19 20 21 22 23 24 25 26 27 28 29 30 31 32 33 34 35 36 37 38 39 40 41 42 43 44 45 46 47 48 49 50

000
ASUS45 KBOU 021607
RWRCO

WEATHER ROUNDUP FOR COLORADO
NATIONAL WEATHER SERVICE DENVER/BOULDER CO
1000 AM MDT TUE JUN 02 2015

NOTE: "FAIR" INDICATES FEW OR NO CLOUDS BELOW 12000 FEET WITH NO
SIGNIFICANT WEATHER AND/OR OBSTRUCTIONS TO VISIBILITY.

COZ001>005-013-030-031-021700-
...NORTHWEST COLORADO...

CITY           SKY/WX    TMP DP  RH WIND       PRES   REMARKS
CRAIG          SUNNY     69  46  43 N3        30.07S
HAYDEN         SUNNY     64  41  42 E6        30.09S
MEEKER         SUNNY     71  37  28 CALM      30.09S
MOUNT WERNER   NOT AVBL
STEAMBOAT SPGS SUNNY     61  42  51 CALM      30.11F
WALDEN         SUNNY     63  37  39 SW6       30.17S
$$

COZ006>008-011-021700-
...WEST CENTRAL VALLEYS...

CITY           SKY/WX    TMP DP  RH WIND       PRES   REMARKS
GRAND JUNCTION SUNNY     79  30  16 S8        30.00F
MONTROSE       SUNNY     77  26  15 W8        30.10F
EAGLE          SUNNY     72  46  40 CALM      30.14F
RIFLE          SUNNY     68  44  42 CALM      30.06F
DELTA          SUNNY     78  25  14 NE3       30.07F
NUCLA          SUNNY     73  25  16 S10G17    30.15F
$$

COZ017>023-064>068-021700-
...SOUTHWEST COLORADO...

CITY           SKY/WX    TMP DP  RH WIND       PRES   REMARKS
DURANGO        SUNNY     67  35  30 E7        30.22S
CORTEZ         SUNNY     74  25  16 S9        30.15F
PAGOSA SPRINGS SUNNY     64  22  20 SW6       30.28F
TELLURIDE      SUNNY     63  15  15 CALM      30.33S
WOLF CREEK PAS NOT AVBL
$$

COZ009-010-012-014-032>034-037-058>063-021700-
...CENTRAL COLORADO...

CITY           SKY/WX    TMP DP  RH WIND       PRES   REMARKS
ASPEN          SUNNY     69  23  17 VRB5      30.18F
BUENA VISTA    SUNNY     60  38  42 CALM      30.24F
COPPER MTN     SUNNY     48  18  29 SW13G22   30.46S
BERTHOUD PASS  FAIR      41  34  75 W22G33    30.48S
COTTONWOOD PAS NOT AVBL
GUNNISON       SUNNY     55  39  54 CALM      30.27F
KREMMLING      SUNNY     61  34  36 CALM      30.17F
LEADVILLE      SUNNY     56  23  27 VRB3      30.32F
MONARCH PASS   SUNNY     46  23  39 SW23      30.58S
SALIDA         SUNNY     67  40  37 N6        30.27F
SUNLIGHT       SUNNY     54  27  35 CALM      30.40F
WILKERSON PASS MOSUNNY   52  32  46 SW6       30.45S
$$

COZ069>075-021700-
...SAN LUIS VALLEY/SANGRE DE CRISTO MOUNTAINS...

CITY           SKY/WX    TMP DP  RH WIND       PRES   REMARKS
ALAMOSA        SUNNY     66  38  35 S8        30.23F
LA VETA PASS   MOSUNNY  N/A N/A N/A MISG      30.39S
SAGUACHE       SUNNY     61  41  48 S9        30.27F
$$

COZ035-036-038>040-021700-
...NORTHERN COLORADO FRONT RANGE...

CITY           SKY/WX    TMP DP  RH WIND       PRES   REMARKS
DENVER INTL AP MOSUNNY   69  54  58 W9        29.99F
DMNS CITY PARK   N/A     75  49  39 S6        29.98F
AURORA         MOSUNNY   72  49  44 W10       30.01F
FRONT RANGE AP PTSUNNY   73  55  53 SW7       30.00F
ERIE MUNI ARPT MOSUNNY   70  55  59 CALM      29.97F
BOULDER MUN AP MOSUNNY   68  54  60 CALM      29.98F
CENTENNIAL     MOSUNNY   74  40  29 SW16      30.02S
BROOMFIELD     MOSUNNY   72  54  53 SE3       30.01F
FORT COLLINS   MOSUNNY   64  54  68 SW3       29.98F
LONGMONT       MOSUNNY   72  53  51 CALM      29.99F
$$

COZ041-046-047-076>085-087-088-021700-
...PIKES PEAK/PALMER DIVIDE AND SOUTHERN FOOTHILLS...

CITY           SKY/WX    TMP DP  RH WIND       PRES   REMARKS
COLO. SPRINGS  PTSUNNY   76  41  28 S6        30.07S
A. F. ACADEMY  PTSUNNY   76  26  15 S12       30.08S
ELLICOTT       MOSUNNY  N/A N/A N/A SW15      30.05F
FALCON         MOSUNNY   76  25  15 W12       30.12F
FORT CARSON    SUNNY     78  43  28 W8        30.03F
LIMON          SUNNY     70  54  56 S9        30.01F
MONUMENT HILL  MOSUNNY   72  34  25 SE14      30.12F
TRINIDAD       MOSUNNY   78  43  28 W9        30.06S
$$

COZ042>045-048>051-090-091-021700-
...NORTHEAST COLORADO...

CITY           SKY/WX    TMP DP  RH WIND       PRES   REMARKS
GREELEY ARPT   MOSUNNY   66  59  77 W5        29.96F
AKRON          SUNNY     74  55  51 SW15      29.94F
BURLINGTON     MOSUNNY   69  60  73 S20       29.93F
WRAY           SUNNY     76  63  63 S10       29.91F
STERLING       SUNNY     72  61  68 SW7       29.92S
HOLYOKE        NOT AVBL
FORT MORGAN    SUNNY     68  53  58 W7        29.96S
$$

COZ086-089-092>099-021700-
...SOUTHEAST COLORADO...

CITY           SKY/WX    TMP DP  RH WIND       PRES   REMARKS
PUEBLO         MOSUNNY   74  53  48 S5        29.97F
LA JUNTA       MOSUNNY   73  56  54 W6        29.96F
LAMAR          SUNNY     75  60  59 VRB6      29.92F
SPRINGFIELD      N/A     80  50  34 VRB3      29.96F
$$



USA.gov is the U.S. government's official web portal to all federal, state and local government web resources and services.